Flag for China Weather past 2 weeks in Tianjin, Tianjin Municipality, China

Now
70 °F

Clear.


Feels Like: 70 °F
Forecast: 70 / 85 °F
Wind: 3 mph from Northwest

Location: Tianjin / Zhangguizhu

Current Time: Aug 29, 2015 at 6:23:19 AM

Latest Report: Aug 29, 2015 at 5:30 AM


Visibility: 4 mi

Pressure: 29.80 "Hg

Humidity: 78%

Dew point: 63 °F

Location of TianjinLocation

Historic Weather in Tianjin — Graph

°F

Tianjin temperature yesterday

Maximum temperature yesterday: 88 °F (at 1:30 PM)
Minimum temperature yesterday: 70 °F (at 4:30 PM)
Average temperature yesterday: 77 °F

Past Weeks' High & Low Weather Summary

 TemperatureHumidityPressure
High97 °F (Aug 16, 3:30 PM)94% (Aug 23, 4:30 PM)29.92 "Hg (Aug 23, 4:30 PM)
Low66 °F (Aug 23, 4:30 PM)20% (Aug 15, 5:00 PM)29.59 "Hg (Aug 14, 12:30 PM)
Average80 °F59%29.75 "Hg
* Reported Aug 14 4:00 AM — Aug 29 4:30 AM, Tianjin, Weather by CustomWeather, © 2015

Note: Actual official high and low records may vary slightly from our data, if they occured in-between our weather recording intervals... More about our weather records

Advertising

Tianjin weather history for previous 24 hours

 ConditionsComfort  
Time TempWeatherWind HumidityBarometerVisibility
4:30 AM
Sat, Aug 29
68 °FClear.3 mph83%29.77 "Hg4 mi
4:00 AM68 °FClear.1 mph83%29.77 "Hg4 mi
3:30 AM68 °FClear.1 mph83%29.77 "Hg5 mi
3:00 AM68 °FClear.1 mph83%29.80 "Hg5 mi
2:30 AM70 °FClear.1 mph78%29.77 "Hg10 mi
2:00 AM70 °FPassing clouds.3 mph73%29.80 "HgN/A
1:30 AM70 °FClear.1 mph78%29.80 "Hg10 mi
1:00 AM70 °FClear.3 mph83%29.80 "Hg10 mi
12:30 AM70 °FClear.6 mph83%29.80 "Hg10 mi
12:00 AM72 °FClear.1 mph73%29.77 "Hg10 mi
11:30 PM
Fri, Aug 28
72 °FClear.1 mph73%29.77 "Hg10 mi
11:00 PM70 °FClear.1 mph83%29.77 "Hg10 mi
10:30 PM70 °FClear.1 mph83%29.77 "Hg10 mi
10:00 PM70 °FClear.No wind83%29.77 "Hg10 mi
9:30 PM72 °FClear.No wind78%29.77 "Hg10 mi
9:00 PM70 °FClear.1 mph83%29.77 "Hg10 mi
8:30 PM72 °FClear.3 mph73%29.77 "Hg10 mi
8:00 PM70 °FClear.1 mph78%29.74 "Hg10 mi
7:30 PM72 °FPassing clouds.3 mph69%29.74 "HgN/A
7:00 PM72 °FPassing clouds.8 mph73%29.74 "HgN/A
6:30 PM72 °FScattered clouds.6 mph69%29.71 "HgN/A
6:00 PM70 °FThunderstorms. Scattered clouds.10 mph73%29.71 "HgN/A
5:30 PM70 °FThunderstorms. Partly sunny.8 mph83%29.71 "Hg5 mi
5:00 PM70 °FThunderstorms. Overcast.13 mph88%29.71 "Hg5 mi
4:30 PM70 °FStrong thunderstorms. Overcast.13 mph83%29.71 "Hg2 mi
4:00 PM72 °FStrong thunderstorms. Overcast.20 mph78%29.71 "Hg1 mi
3:30 PM77 °FThunderstorms. Partly sunny.15 mph61%29.71 "HgN/A
3:00 PM82 °FPartly sunny.13 mph51%29.68 "HgN/A
2:30 PM88 °FScattered clouds.6 mph35%29.68 "HgN/A
2:00 PM88 °FScattered clouds.6 mph43%29.68 "HgN/A
1:30 PM88 °FScattered clouds.6 mph43%29.71 "HgN/A
1:00 PM86 °FScattered clouds.6 mph46%29.74 "HgN/A
12:30 PM86 °FPartly sunny.6 mph46%29.74 "HgN/A
12:00 PM86 °FScattered clouds.8 mph49%29.74 "HgN/A
11:30 AM86 °FPassing clouds.6 mph46%29.77 "HgN/A
11:00 AM84 °FPassing clouds.6 mph51%29.77 "HgN/A
10:30 AM84 °FPassing clouds.3 mph51%29.77 "HgN/A
10:00 AM82 °FPassing clouds.6 mph51%29.77 "HgN/A
9:30 AM82 °FPassing clouds.6 mph55%29.77 "HgN/A
9:00 AM81 °FPassing clouds.3 mph54%29.80 "HgN/A
8:30 AM81 °FPassing clouds.3 mph58%29.77 "HgN/A
8:00 AM79 °FClear.3 mph58%29.77 "Hg5 mi
7:30 AM77 °FClear.3 mph61%29.77 "Hg4 mi
7:00 AM75 °FClear.3 mph69%29.77 "Hg4 mi
6:30 AM75 °FHaze.3 mph65%29.77 "Hg3 mi
6:00 AM73 °FHaze.1 mph69%29.77 "Hg3 mi
Weather by CustomWeather, © 2015

See weather overviewHow to use our weather pages